Total_Precipitation_Accumulation
1.14 1.18 1.20 1.19 1.23 1.21 1.11 0.99 0.94 0.92 0.89 0.89 0.94 0.99 0.97 0.93 0.95 1.03 1.08 1.28 1.38 1.39 1.38 1.42 1.40 1.39 1.38 1.33 1.39 1.50 1.63 1.64 1.43 1.20 1.23 1.25 1.22 1.09 1.02 0.94 0.84 0.72 0.57
1.13 1.29 1.36 1.30 1.24 1.16 1.02 0.94 0.94 0.93 0.90 0.89 0.89 0.88 0.83 0.82 0.89 0.95 1.04 1.15 1.22 1.23 1.22 1.21 1.12 1.10 1.15 1.11 1.18 1.24 1.34 1.54 1.52 1.40 1.45 1.48 1.45 1.34 1.27 1.20 1.01 0.78 0.64
1.11 1.43 1.58 1.52 1.38 1.20 1.02 0.90 0.86 0.86 0.87 0.86 0.84 0.84 0.85 0.94 1.03 1.06 1.07 1.06 1.05 1.07 1.16 1.22 1.09 1.03 1.03 1.05 1.06 1.03 1.08 1.25 1.39 1.42 1.46 1.55 1.55 1.53 1.40 1.23 1.13 1.00 0.77
1.01 1.24 1.34 1.25 1.16 1.05 0.90 0.78 0.74 0.75 0.81 0.83 0.86 0.88 0.92 0.99 1.06 1.11 1.12 1.06 0.98 0.91 0.95 0.99 0.99 0.98 0.99 1.05 1.03 1.03 1.05 1.18 1.31 1.38 1.45 1.60 1.62 1.54 1.49 1.32 1.29 1.18 1.04
0.76 0.86 0.96 0.93 0.87 0.81 0.78 0.74 0.72 0.77 0.79 0.86 0.92 0.94 0.93 0.91 0.86 0.87 0.89 0.89 0.90 0.84 0.77 0.78 0.81 0.87 0.88 0.89 0.86 0.99 1.09 1.14 1.17 1.22 1.28 1.47 1.67 1.72 1.52 1.41 1.46 1.43 1.29
0.62 0.71 0.83 0.93 0.91 0.82 0.78 0.80 0.77 0.81 0.85 0.90 0.93 0.97 0.98 0.82 0.87 0.81 0.77 0.83 0.88 0.88 0.86 0.81 0.74 0.70 0.68 0.66 0.64 0.71 0.86 0.98 1.04 1.10 1.16 1.31 1.52 1.71 1.75 1.69 1.60 1.51 1.47
0.64 0.73 0.84 0.94 0.95 0.91 0.85 0.88 0.89 0.95 1.01 0.99 0.98 0.97 0.98 1.02 1.02 0.87 0.73 0.70 0.76 0.82 0.86 0.85 0.70 0.61 0.67 0.65 0.66 0.65 0.66 0.75 0.85 0.97 1.06 1.10 1.26 1.49 1.69 1.64 1.70 1.72 1.69
0.70 0.81 0.92 1.00 0.99 0.99 1.02 1.07 1.12 1.15 1.18 1.16 1.11 1.05 1.10 1.09 1.00 0.82 0.72 0.64 0.68 0.73 0.76 0.79 0.77 0.68 0.65 0.72 0.77 0.75 0.69 0.68 0.71 0.75 0.83 0.97 1.17 1.42 1.68 1.66 1.65 1.72 1.76
0.84 0.91 0.99 1.09 1.14 1.17 1.22 1.25 1.28 1.33 1.30 1.25 1.21 1.20 1.16 1.17 1.15 0.94 0.86 0.80 0.85 0.87 0.88 0.83 0.79 0.73 0.75 0.72 0.75 0.77 0.74 0.71 0.68 0.71 0.73 0.88 1.10 1.21 1.42 1.54 1.52 1.53 1.45
1.00 1.13 1.29 1.43 1.45 1.46 1.55 1.60 1.54 1.47 1.39 1.42 1.38 1.36 1.35 1.40 1.49 1.26 1.12 1.05 1.07 1.03 1.07 0.98 0.88 0.80 0.79 0.75 0.71 0.74 0.72 0.73 0.79 0.76 0.73 0.76 0.85 1.03 1.18 1.30 1.42 1.47 1.35
1.14 1.29 1.51 1.66 1.73 1.77 1.87 1.88 1.85 1.81 1.78 1.72 1.61 1.58 1.58 1.61 1.69 1.48 1.33 1.25 1.27 1.31 1.28 1.16 1.11 1.01 0.85 0.80 0.74 0.75 0.75 0.77 0.84 0.87 0.87 0.88 0.93 1.02 1.10 1.17 1.34 1.46 1.43
1.19 1.33 1.47 1.63 1.67 1.74 1.93 1.99 2.02 2.01 1.94 1.88 1.82 1.69 1.67 1.65 1.57 1.41 1.25 1.18 1.27 1.40 1.45 1.35 1.26 1.12 0.90 0.80 0.73 0.72 0.73 0.68 0.70 0.82 0.86 0.87 0.88 0.90 0.96 1.11 1.26 1.33 1.37
1.28 1.41 1.53 1.62 1.70 1.78 1.82 1.81 1.84 1.91 1.90 1.82 1.81 1.74 1.70 1.69 1.63 1.36 1.15 1.08 1.12 1.22 1.36 1.40 1.25 1.08 0.91 0.79 0.75 0.72 0.66 0.60 0.64 0.71 0.72 0.73 0.75 0.81 0.95 1.13 1.31 1.38 1.34
1.38 1.42 1.50 1.62 1.65 1.68 1.80 1.88 1.94 2.03 2.09 1.99 1.88 1.80 1.75 1.70 1.59 1.41 1.23 1.13 1.16 1.25 1.35 1.40 1.27 1.14 0.98 0.90 0.81 0.72 0.67 0.71 0.75 0.77 0.79 0.83 0.90 0.96 1.02 1.08 1.19 1.28 1.31
1.26 1.33 1.39 1.45 1.54 1.62 1.67 1.74 1.75 1.81 1.80 1.76 1.70 1.69 1.68 1.64 1.49 1.39 1.28 1.18 1.23 1.33 1.38 1.45 1.35 1.29 1.21 1.11 1.03 0.97 0.95 0.95 0.89 0.87 0.93 0.95 0.96 1.02 1.04 1.05 1.16 1.18 1.12
1.32 1.36 1.32 1.31 1.38 1.44 1.49 1.47 1.43 1.35 1.31 1.26 1.25 1.26 1.26 1.21 1.13 1.02 0.98 0.98 1.03 1.17 1.24 1.41 1.47 1.44 1.39 1.31 1.19 1.09 1.04 1.00 0.94 0.96 0.99 1.01 1.01 1.03 1.08 1.07 1.12 1.15 1.07
1.20 1.22 1.21 1.21 1.29 1.33 1.36 1.39 1.41 1.33 1.21 1.12 1.09 1.05 1.06 1.04 1.01 0.97 0.97 1.02 1.02 1.07 1.13 1.29 1.36 1.32 1.29 1.24 1.12 1.01 0.96 0.97 1.04 1.05 1.07 1.06 1.11 1.13 1.18 1.16 1.13 1.17 1.13
1.03 1.07 1.10 1.14 1.20 1.29 1.35 1.41 1.52 1.60 1.54 1.35 1.16 1.05 0.97 0.91 0.86 0.85 0.87 0.88 0.88 0.92 1.04 1.18 1.21 1.15 1.13 1.09 1.07 1.01 0.99 1.05 1.13 1.12 1.11 1.12 1.14 1.14 1.17 1.17 1.14 1.11 1.10
0.94 0.94 0.95 0.99 1.04 1.11 1.14 1.22 1.32 1.42 1.45 1.36 1.21 1.08 0.96 0.87 0.78 0.73 0.72 0.71 0.79 0.91 1.06 1.11 1.13 1.13 1.06 1.03 1.02 0.98 0.97 0.99 1.08 1.14 1.11 1.12 1.12 1.14 1.12 1.09 1.13 1.12 1.03
0.89 0.86 0.86 0.87 0.88 0.87 0.90 0.97 1.07 1.18 1.24 1.18 1.08 0.97 0.86 0.81 0.72 0.67 0.62 0.61 0.70 0.79 0.89 0.96 1.00 0.97 0.91 0.92 0.95 0.93 0.91 0.98 1.08 1.11 1.08 1.11 1.15 1.15 1.07 1.04 1.06 1.09 1.02
0.88 0.79 0.74 0.74 0.74 0.76 0.81 0.87 0.91 0.95 1.01 0.97 0.89 0.77 0.70 0.66 0.59 0.56 0.56 0.60 0.68 0.78 0.84 0.89 0.89 0.86 0.84 0.88 0.92 0.95 0.93 0.98 1.06 1.08 1.08 1.12 1.16 1.16 1.09 1.06 1.04 1.05 1.05
0.84 0.74 0.67 0.65 0.67 0.70 0.71 0.78 0.84 0.84 0.82 0.79 0.73 0.60 0.57 0.55 0.49 0.46 0.49 0.55 0.62 0.73 0.75 0.74 0.77 0.78 0.76 0.78 0.84 0.91 0.95 1.01 1.08 1.10 1.08 1.10 1.14 1.14 1.16 1.13 1.12 1.09 1.09
0.86 0.73 0.63 0.59 0.60 0.62 0.65 0.74 0.80 0.78 0.70 0.65 0.60 0.57 0.56 0.58 0.49 0.46 0.51 0.59 0.66 0.68 0.65 0.66 0.70 0.74 0.75 0.76 0.76 0.84 0.91 0.97 1.02 1.03 1.09 1.13 1.11 1.09 1.10 1.05 1.05 1.06 1.06
0.82 0.73 0.64 0.55 0.55 0.60 0.63 0.69 0.73 0.72 0.66 0.61 0.58 0.56 0.57 0.60 0.56 0.54 0.59 0.70 0.69 0.63 0.61 0.64 0.67 0.70 0.73 0.78 0.78 0.78 0.82 0.87 0.87 0.87 0.90 0.95 0.97 0.99 1.01 1.00 0.99 0.98 1.01
0.80 0.72 0.62 0.53 0.51 0.55 0.58 0.64 0.68 0.69 0.65 0.59 0.58 0.59 0.62 0.65 0.62 0.61 0.64 0.66 0.62 0.58 0.54 0.58 0.64 0.66 0.69 0.71 0.73 0.73 0.73 0.70 0.70 0.73 0.76 0.80 0.85 0.93 0.99 1.00 1.00 0.99 0.98
0.73 0.66 0.60 0.53 0.47 0.47 0.54 0.62 0.63 0.63 0.61 0.57 0.57 0.59 0.58 0.58 0.55 0.51 0.49 0.49 0.49 0.49 0.49 0.54 0.60 0.62 0.66 0.67 0.60 0.58 0.55 0.50 0.52 0.61 0.64 0.72 0.83 0.90 0.94 0.99 0.98 0.99 0.97